BEL2DT EBBR-LPPT

Flight info

Callsign BEL2DT
Flight time 2h 29m
Altitude 37000
Route CIV N872 LESDO DCT KOVIN DCT NIDUV DCT KIHVI UN872 ERIGA UZ218 FUJTI DCT ATLEN DCT ABUPI DCT XAMAX
Aircraft A319/M-SDE3FGHIRWY/LB1

Departure

Time 2026-05-08 05:42
Airport Brussels Airport (EBBR)

Arrival

Time 2026-05-08 08:11
Airport Lisbon Humberto Delgado Airport (LPPT)
Time Latitude Longitude Altitude Speed Heading
2026-05-08 05:08 50.90326 4.48746 185 ft 0 kts 336°
2026-05-08 05:33 50.90305 4.48760 195 ft 4 kts 339°
2026-05-08 05:34 50.90289 4.48769 195 ft 4 kts 345°
2026-05-08 05:34 50.90262 4.48777 199 ft 4 kts
2026-05-08 05:34 50.90244 4.48764 196 ft 1 kts 65°
2026-05-08 05:34 50.90242 4.48758 193 ft 0 kts 65°
2026-05-08 05:37 50.90247 4.48775 199 ft 3 kts 65°
2026-05-08 05:37 50.90260 4.48821 189 ft 6 kts 65°
2026-05-08 05:37 50.90277 4.48880 191 ft 6 kts 65°
2026-05-08 05:38 50.90298 4.48953 192 ft 8 kts 65°
2026-05-08 05:38 50.90326 4.49053 196 ft 11 kts 65°
2026-05-08 05:38 50.90361 4.49174 189 ft 13 kts 65°
2026-05-08 05:38 50.90399 4.49304 191 ft 13 kts 65°
2026-05-08 05:39 50.90438 4.49440 192 ft 14 kts 65°
2026-05-08 05:39 50.90478 4.49576 188 ft 12 kts 64°
2026-05-08 05:39 50.90550 4.49631 185 ft 13 kts 14°
2026-05-08 05:39 50.90637 4.49667 191 ft 13 kts 14°
2026-05-08 05:40 50.90727 4.49704 185 ft 14 kts 14°
2026-05-08 05:40 50.90822 4.49743 191 ft 14 kts 14°
2026-05-08 05:40 50.90921 4.49790 190 ft 15 kts 25°
2026-05-08 05:40 50.91007 4.49892 190 ft 16 kts 39°
2026-05-08 05:41 50.91079 4.50006 182 ft 11 kts 70°
2026-05-08 05:41 50.91046 4.50097 183 ft 10 kts 170°
2026-05-08 05:41 50.90976 4.50073 183 ft 11 kts 194°
2026-05-08 05:41 50.90881 4.50034 184 ft 32 kts 194°
2026-05-08 05:42 50.90391 4.49836 186 ft 109 kts 194°
2026-05-08 05:42 50.89440 4.49448 226 ft 165 kts 194°
2026-05-08 05:42 50.88342 4.48993 925 ft 163 kts 192°
2026-05-08 05:42 50.87218 4.49152 1588 ft 167 kts 152°
2026-05-08 05:43 50.86297 4.50249 2311 ft 166 kts 140°
2026-05-08 05:43 50.85394 4.51378 3054 ft 164 kts 141°
2026-05-08 05:43 50.84479 4.52478 3674 ft 171 kts 142°
2026-05-08 05:43 50.83463 4.53683 4029 ft 194 kts 142°
2026-05-08 05:44 50.82306 4.55040 4388 ft 220 kts 143°
2026-05-08 05:44 50.80862 4.56160 4839 ft 246 kts 165°
2026-05-08 05:44 50.79087 4.56298 5418 ft 266 kts 190°
2026-05-08 05:44 50.77357 4.55213 6336 ft 273 kts 214°
2026-05-08 05:45 50.76028 4.53076 7267 ft 277 kts 238°
2026-05-08 05:45 50.75218 4.50294 8227 ft 280 kts 248°
2026-05-08 05:45 50.74464 4.47403 9225 ft 283 kts 248°
2026-05-08 05:45 50.73711 4.44521 10160 ft 286 kts 248°
2026-05-08 05:46 50.72942 4.41594 10899 ft 295 kts 248°
2026-05-08 05:46 50.72124 4.38485 11194 ft 319 kts 248°
2026-05-08 05:46 50.71252 4.35172 11755 ft 331 kts 248°
2026-05-08 05:46 50.70360 4.31788 12545 ft 336 kts 248°
2026-05-08 05:47 50.69458 4.28374 13366 ft 339 kts 248°
2026-05-08 05:47 50.68547 4.24934 14162 ft 342 kts 248°
2026-05-08 05:47 50.67624 4.21453 14885 ft 345 kts 248°
2026-05-08 05:47 50.66695 4.17951 15597 ft 348 kts 247°
2026-05-08 05:48 50.65754 4.14410 16310 ft 351 kts 247°
2026-05-08 05:48 50.64803 4.10847 17010 ft 355 kts 247°
2026-05-08 05:48 50.63839 4.07245 17709 ft 358 kts 247°
2026-05-08 05:48 50.62866 4.03612 18395 ft 362 kts 247°
2026-05-08 05:49 50.61879 3.99941 18999 ft 365 kts 247°
2026-05-08 05:49 50.60882 3.96243 19618 ft 368 kts 247°
2026-05-08 05:49 50.59880 3.92524 20238 ft 371 kts 247°
2026-05-08 05:49 50.58817 3.88802 20845 ft 374 kts 241°
2026-05-08 05:50 50.57345 3.85409 21452 ft 377 kts 229°
2026-05-08 05:50 50.55439 3.82551 22063 ft 381 kts 218°
2026-05-08 05:50 50.53176 3.80373 22667 ft 385 kts 206°
2026-05-08 05:50 50.50713 3.78686 23264 ft 387 kts 204°
2026-05-08 05:51 50.48229 3.77009 23804 ft 390 kts 204°
2026-05-08 05:51 50.45725 3.75319 24280 ft 393 kts 204°
2026-05-08 05:51 50.43207 3.73617 24736 ft 395 kts 204°
2026-05-08 05:51 50.40674 3.71897 25195 ft 398 kts 204°
2026-05-08 05:52 50.38126 3.70164 25645 ft 401 kts 204°
2026-05-08 05:52 50.35560 3.68416 26091 ft 403 kts 204°
2026-05-08 05:52 50.32982 3.66662 26530 ft 406 kts 204°
2026-05-08 05:52 50.30384 3.64900 26972 ft 408 kts 204°
2026-05-08 05:53 50.27765 3.63130 27406 ft 411 kts 204°
2026-05-08 05:53 50.25095 3.61327 27844 ft 413 kts 204°
2026-05-08 05:53 50.22450 3.59546 28285 ft 416 kts 204°
2026-05-08 05:53 50.19785 3.57756 28699 ft 418 kts 204°
2026-05-08 05:54 50.17103 3.55950 29113 ft 421 kts 204°
2026-05-08 05:54 50.14406 3.54134 29515 ft 423 kts 204°
2026-05-08 05:54 50.11692 3.52311 29913 ft 426 kts 204°
2026-05-08 05:54 50.08964 3.50484 30272 ft 428 kts 204°
2026-05-08 05:55 50.06225 3.48654 30604 ft 430 kts 204°
2026-05-08 05:55 50.03466 3.46816 30926 ft 432 kts 204°
2026-05-08 05:55 50.00707 3.44976 31260 ft 433 kts 204°
2026-05-08 05:55 49.97930 3.43125 31595 ft 434 kts 204°
2026-05-08 05:56 49.95160 3.41288 32052 ft 432 kts 204°
2026-05-08 05:56 49.92399 3.39457 32518 ft 430 kts 204°
2026-05-08 05:56 49.89654 3.37636 32992 ft 428 kts 204°
2026-05-08 05:56 49.86919 3.35819 33458 ft 427 kts 204°
2026-05-08 05:57 49.84194 3.34015 33911 ft 426 kts 204°
2026-05-08 05:57 49.81474 3.32220 34315 ft 424 kts 204°
2026-05-08 05:57 49.78755 3.30426 34657 ft 424 kts 204°
2026-05-08 05:57 49.76041 3.28634 34956 ft 425 kts 205°
2026-05-08 05:58 49.73317 3.26839 35236 ft 426 kts 205°
2026-05-08 05:58 49.70591 3.25045 35523 ft 426 kts 205°
2026-05-08 05:58 49.67857 3.23248 35780 ft 427 kts 205°
2026-05-08 05:58 49.65121 3.21454 36036 ft 428 kts 205°
2026-05-08 05:59 49.62378 3.19656 36280 ft 429 kts 205°
2026-05-08 05:59 49.59630 3.17859 36524 ft 429 kts 205°
2026-05-08 05:59 49.56877 3.16057 36765 ft 430 kts 205°
2026-05-08 05:59 49.54123 3.14244 36990 ft 431 kts 206°
2026-05-08 06:00 49.51495 3.12067 37058 ft 428 kts 215°
2026-05-08 06:00 49.47066 3.05972 37062 ft 424 kts 233°
2026-05-08 06:01 49.43987 2.98258 37069 ft 424 kts 240°
2026-05-08 06:01 49.41072 2.90380 37070 ft 424 kts 240°
2026-05-08 06:02 49.38144 2.82521 37063 ft 424 kts 240°
2026-05-08 06:02 49.35206 2.74675 37065 ft 425 kts 240°
2026-05-08 06:03 49.32317 2.66779 37069 ft 425 kts 242°
2026-05-08 06:03 49.29543 2.58778 37089 ft 425 kts 243°
2026-05-08 06:04 49.26770 2.50776 37076 ft 425 kts 242°
2026-05-08 06:04 49.23960 2.42808 37084 ft 425 kts 242°
2026-05-08 06:05 49.21132 2.34860 37075 ft 426 kts 242°
2026-05-08 06:05 49.18275 2.26926 37066 ft 426 kts 241°
2026-05-08 06:06 49.15354 2.19049 37066 ft 426 kts 241°
2026-05-08 06:06 49.12423 2.11189 37090 ft 426 kts 241°
2026-05-08 06:07 49.09523 2.03309 37093 ft 426 kts 245°
2026-05-08 06:07 49.07063 1.95108 37086 ft 425 kts 246°
2026-05-08 06:08 49.05003 1.88236 37093 ft 425 kts 246°
2026-05-08 06:08 49.02529 1.80051 37080 ft 425 kts 246°
2026-05-08 06:09 49.00053 1.71880 37073 ft 425 kts 246°
2026-05-08 06:09 48.97573 1.63715 37072 ft 425 kts 246°
2026-05-08 06:10 48.95094 1.55568 37067 ft 425 kts 245°
2026-05-08 06:10 48.92601 1.47422 37063 ft 424 kts 245°
2026-05-08 06:11 48.90110 1.39287 37060 ft 424 kts 245°
2026-05-08 06:11 48.87613 1.31164 37061 ft 424 kts 245°
2026-05-08 06:12 48.85104 1.23057 37067 ft 424 kts 245°
2026-05-08 06:12 48.82594 1.14963 37059 ft 424 kts 245°
2026-05-08 06:13 48.80082 1.06867 37065 ft 424 kts 245°
2026-05-08 06:13 48.77546 0.98737 37064 ft 424 kts 245°
2026-05-08 06:14 48.75014 0.90668 37069 ft 424 kts 245°
2026-05-08 06:14 48.72058 0.82940 37064 ft 424 kts 239°
2026-05-08 06:15 48.68972 0.75331 37060 ft 424 kts 239°
2026-05-08 06:15 48.65890 0.67738 37059 ft 424 kts 239°
2026-05-08 06:16 48.62799 0.60149 37056 ft 423 kts 239°
2026-05-08 06:16 48.59707 0.52577 37055 ft 423 kts 239°
2026-05-08 06:17 48.55065 0.41238 37052 ft 423 kts 239°
2026-05-08 06:17 48.51970 0.33693 37044 ft 423 kts 239°
2026-05-08 06:18 48.48871 0.26165 37043 ft 422 kts 239°
2026-05-08 06:18 48.45763 0.18651 37038 ft 422 kts 239°
2026-05-08 06:19 48.42652 0.11150 37039 ft 422 kts 239°
2026-05-08 06:19 48.39541 0.03655 37032 ft 422 kts 239°
2026-05-08 06:20 48.36424 -0.03814 37034 ft 422 kts 239°
2026-05-08 06:20 48.33072 -0.11062 37033 ft 423 kts 235°
2026-05-08 06:21 48.29470 -0.18121 37030 ft 423 kts 234°
2026-05-08 06:21 48.25884 -0.25132 37026 ft 423 kts 235°
2026-05-08 06:22 48.22315 -0.32169 37025 ft 424 kts 235°
2026-05-08 06:22 48.18740 -0.39185 37023 ft 424 kts 235°
2026-05-08 06:23 48.15150 -0.46195 37022 ft 424 kts 235°
2026-05-08 06:23 48.11553 -0.53196 37024 ft 424 kts 235°
2026-05-08 06:24 48.07946 -0.60192 37025 ft 425 kts 235°
2026-05-08 06:24 48.04336 -0.67180 37031 ft 425 kts 235°
2026-05-08 06:25 48.00718 -0.74173 37035 ft 425 kts 235°
2026-05-08 06:25 47.97103 -0.81160 37039 ft 425 kts 235°
2026-05-08 06:26 47.93479 -0.88141 37035 ft 426 kts 235°
2026-05-08 06:26 47.89847 -0.95103 37031 ft 426 kts 235°
2026-05-08 06:27 47.86205 -1.02060 37027 ft 425 kts 235°
2026-05-08 06:27 47.82571 -1.09003 37019 ft 425 kts 235°
2026-05-08 06:28 47.78934 -1.15926 37014 ft 425 kts 235°
2026-05-08 06:28 47.75292 -1.22836 37013 ft 424 kts 235°
2026-05-08 06:29 47.71632 -1.29767 37007 ft 423 kts 235°
2026-05-08 06:29 47.67994 -1.36637 37007 ft 423 kts 235°
2026-05-08 06:30 47.64366 -1.43481 37006 ft 422 kts 235°
2026-05-08 06:30 47.60737 -1.50303 37007 ft 421 kts 235°
2026-05-08 06:31 47.56984 -1.56964 36998 ft 421 kts 232°
2026-05-08 06:31 47.53022 -1.63366 36997 ft 421 kts 231°
2026-05-08 06:32 47.49049 -1.69719 36992 ft 420 kts 231°
2026-05-08 06:32 47.45127 -1.76112 36991 ft 419 kts 232°
2026-05-08 06:33 47.41236 -1.82519 36985 ft 418 kts 232°
2026-05-08 06:33 47.37341 -1.88896 36986 ft 418 kts 231°
2026-05-08 06:34 47.32980 -1.94608 36983 ft 425 kts 216°
2026-05-08 06:34 47.27910 -1.99127 36979 ft 426 kts 216°
2026-05-08 06:35 47.22846 -2.03651 36978 ft 426 kts 216°
2026-05-08 06:35 47.17787 -2.08174 36978 ft 425 kts 216°
2026-05-08 06:36 47.12727 -2.12680 36973 ft 425 kts 215°
2026-05-08 06:36 47.07641 -2.17196 36971 ft 425 kts 215°
2026-05-08 06:37 47.02582 -2.21682 36972 ft 425 kts 215°
2026-05-08 06:37 46.97525 -2.26149 36968 ft 424 kts 215°
2026-05-08 06:38 46.92471 -2.30609 36967 ft 424 kts 215°
2026-05-08 06:38 46.87414 -2.35058 36969 ft 424 kts 215°
2026-05-08 06:39 46.82363 -2.39498 36968 ft 424 kts 215°
2026-05-08 06:39 46.77315 -2.43936 36966 ft 424 kts 215°
2026-05-08 06:40 46.72263 -2.48360 36967 ft 424 kts 215°
2026-05-08 06:40 46.68059 -2.52032 36966 ft 424 kts 215°
2026-05-08 06:41 46.63001 -2.56431 36964 ft 423 kts 214°
2026-05-08 06:41 46.57917 -2.60860 36963 ft 423 kts 215°
2026-05-08 06:42 46.52862 -2.65250 36967 ft 423 kts 214°
2026-05-08 06:42 46.47806 -2.69628 36969 ft 423 kts 214°
2026-05-08 06:43 46.42751 -2.73990 36968 ft 423 kts 214°
2026-05-08 06:43 46.37696 -2.78344 36965 ft 423 kts 214°
2026-05-08 06:44 46.32648 -2.82697 36963 ft 422 kts 214°
2026-05-08 06:44 46.27597 -2.87038 36962 ft 422 kts 216°
2026-05-08 06:45 46.23040 -2.92253 36956 ft 417 kts 223°
2026-05-08 06:45 46.18613 -2.97681 36951 ft 417 kts 223°
2026-05-08 06:46 46.14177 -3.03081 36952 ft 417 kts 223°
2026-05-08 06:46 46.09738 -3.08467 36948 ft 417 kts 223°
2026-05-08 06:47 46.05310 -3.13851 36952 ft 417 kts 223°
2026-05-08 06:47 46.00879 -3.19231 36945 ft 416 kts 223°
2026-05-08 06:48 45.96442 -3.24583 36946 ft 416 kts 223°
2026-05-08 06:48 45.91973 -3.29964 36938 ft 416 kts 223°
2026-05-08 06:49 45.87534 -3.35317 36940 ft 416 kts 222°
2026-05-08 06:49 45.83094 -3.40649 36937 ft 416 kts 222°
2026-05-08 06:50 45.78650 -3.45977 36934 ft 416 kts 222°
2026-05-08 06:50 45.74200 -3.51296 36932 ft 416 kts 222°
2026-05-08 06:51 45.69749 -3.56602 36924 ft 417 kts 222°
2026-05-08 06:51 45.65293 -3.61905 36919 ft 417 kts 222°
2026-05-08 06:52 45.60835 -3.67198 36920 ft 417 kts 221°
2026-05-08 06:52 45.56373 -3.72486 36919 ft 417 kts 221°
2026-05-08 06:53 45.51909 -3.77764 36918 ft 417 kts 221°
2026-05-08 06:53 45.47445 -3.83041 36914 ft 417 kts 221°
2026-05-08 06:54 45.42977 -3.88303 36917 ft 417 kts 221°
2026-05-08 06:54 45.38510 -3.93550 36915 ft 416 kts 221°
2026-05-08 06:55 45.34041 -3.98787 36910 ft 416 kts 221°
2026-05-08 06:55 45.29571 -4.04014 36902 ft 416 kts 221°
2026-05-08 06:56 45.25103 -4.09230 36902 ft 416 kts 220°
2026-05-08 06:56 45.20609 -4.14475 36903 ft 415 kts 220°
2026-05-08 06:57 45.16152 -4.19672 36897 ft 415 kts 220°
2026-05-08 06:57 45.11687 -4.24852 36896 ft 414 kts 220°
2026-05-08 06:58 45.07227 -4.30017 36897 ft 414 kts 220°
2026-05-08 06:58 45.02774 -4.35161 36893 ft 414 kts 220°
2026-05-08 06:59 44.98314 -4.40295 36892 ft 413 kts 220°
2026-05-08 06:59 44.93859 -4.45418 36894 ft 413 kts 220°
2026-05-08 07:00 44.89411 -4.50533 36892 ft 412 kts 220°
2026-05-08 07:00 44.84968 -4.55627 36892 ft 412 kts 220°
2026-05-08 07:01 44.80525 -4.60711 36887 ft 411 kts 220°
2026-05-08 07:01 44.76089 -4.65776 36886 ft 410 kts 219°
2026-05-08 07:02 44.71654 -4.70824 36882 ft 410 kts 219°
2026-05-08 07:02 44.67223 -4.75853 36883 ft 409 kts 219°
2026-05-08 07:03 44.62802 -4.80875 36883 ft 409 kts 219°
2026-05-08 07:03 44.58382 -4.85893 36887 ft 409 kts 219°
2026-05-08 07:04 44.53919 -4.90933 36883 ft 409 kts 219°
2026-05-08 07:04 44.49392 -4.95750 36882 ft 409 kts 212°
2026-05-08 07:05 44.44567 -4.99962 36879 ft 409 kts 212°
2026-05-08 07:05 44.39750 -5.04173 36877 ft 408 kts 212°
2026-05-08 07:06 44.34934 -5.08376 36879 ft 408 kts 212°
2026-05-08 07:06 44.30118 -5.12569 36871 ft 408 kts 212°
2026-05-08 07:07 44.25302 -5.16751 36873 ft 408 kts 212°
2026-05-08 07:07 44.20485 -5.20928 36874 ft 408 kts 212°
2026-05-08 07:08 44.15670 -5.25091 36874 ft 408 kts 212°
2026-05-08 07:08 44.10854 -5.29258 36875 ft 408 kts 211°
2026-05-08 07:09 44.06033 -5.33411 36874 ft 408 kts 211°
2026-05-08 07:09 44.01211 -5.37564 36867 ft 408 kts 211°
2026-05-08 07:10 43.96390 -5.41707 36863 ft 408 kts 211°
2026-05-08 07:10 43.91567 -5.45850 36860 ft 408 kts 211°
2026-05-08 07:11 43.86742 -5.49973 36857 ft 408 kts 211°
2026-05-08 07:11 43.81911 -5.54090 36855 ft 408 kts 211°
2026-05-08 07:12 43.77080 -5.58200 36854 ft 407 kts 211°
2026-05-08 07:12 43.72222 -5.62329 36850 ft 407 kts 210°
2026-05-08 07:13 43.67404 -5.66426 36845 ft 407 kts 210°
2026-05-08 07:13 43.63399 -5.69827 36844 ft 406 kts 210°
2026-05-08 07:14 43.58581 -5.73901 36841 ft 406 kts 210°
2026-05-08 07:14 43.53766 -5.77970 36833 ft 406 kts 210°
2026-05-08 07:15 43.48949 -5.82028 36833 ft 406 kts 210°
2026-05-08 07:15 43.44118 -5.86097 36828 ft 407 kts 210°
2026-05-08 07:16 43.39280 -5.90154 36829 ft 408 kts 210°
2026-05-08 07:16 43.34400 -5.94235 36820 ft 408 kts 210°
2026-05-08 07:17 43.29548 -5.98296 36829 ft 409 kts 210°
2026-05-08 07:17 43.24692 -6.02356 36833 ft 409 kts 210°
2026-05-08 07:18 43.19819 -6.06412 36842 ft 409 kts 210°
2026-05-08 07:18 43.14955 -6.10456 36858 ft 409 kts 210°
2026-05-08 07:19 43.10086 -6.14493 36872 ft 409 kts 209°
2026-05-08 07:19 43.05229 -6.18510 36858 ft 407 kts 209°
2026-05-08 07:20 43.00378 -6.22520 36870 ft 408 kts 209°
2026-05-08 07:20 42.95525 -6.26532 36881 ft 407 kts 209°
2026-05-08 07:21 42.90676 -6.30531 36885 ft 407 kts 209°
2026-05-08 07:21 42.85830 -6.34521 36893 ft 407 kts 209°
2026-05-08 07:22 42.80976 -6.38508 36884 ft 407 kts 209°
2026-05-08 07:22 42.76116 -6.42484 36882 ft 408 kts 209°
2026-05-08 07:23 42.71255 -6.46457 36872 ft 408 kts 209°
2026-05-08 07:23 42.66391 -6.50432 36871 ft 408 kts 209°
2026-05-08 07:24 42.61518 -6.54404 36880 ft 409 kts 209°
2026-05-08 07:24 42.56608 -6.58395 36888 ft 409 kts 208°
2026-05-08 07:25 42.51722 -6.62354 36886 ft 409 kts 208°
2026-05-08 07:26 42.44391 -6.68282 36884 ft 409 kts 208°
2026-05-08 07:26 42.39504 -6.72239 36888 ft 409 kts 208°
2026-05-08 07:27 42.34614 -6.76195 36890 ft 409 kts 208°
2026-05-08 07:27 42.29715 -6.80128 36889 ft 409 kts 208°
2026-05-08 07:28 42.24820 -6.84059 36889 ft 410 kts 208°
2026-05-08 07:28 42.19920 -6.87993 36890 ft 410 kts 208°
2026-05-08 07:29 42.15018 -6.91915 36894 ft 410 kts 208°
2026-05-08 07:29 42.10116 -6.95825 36895 ft 410 kts 208°
2026-05-08 07:30 42.05218 -6.99748 36894 ft 410 kts 208°
2026-05-08 07:30 42.00315 -7.03655 36896 ft 409 kts 208°
2026-05-08 07:31 41.95413 -7.07550 36896 ft 409 kts 208°
2026-05-08 07:31 41.90508 -7.11435 36894 ft 409 kts 208°
2026-05-08 07:32 41.85565 -7.15346 36898 ft 409 kts 208°
2026-05-08 07:32 41.80660 -7.19230 36899 ft 410 kts 208°
2026-05-08 07:33 41.75742 -7.23114 36911 ft 411 kts 208°
2026-05-08 07:33 41.70815 -7.26975 36907 ft 410 kts 207°
2026-05-08 07:34 41.65879 -7.30802 36899 ft 410 kts 207°
2026-05-08 07:34 41.60946 -7.34624 36894 ft 410 kts 207°
2026-05-08 07:35 41.56011 -7.38447 36892 ft 410 kts 207°
2026-05-08 07:35 41.51071 -7.42274 36890 ft 411 kts 207°
2026-05-08 07:36 41.46115 -7.46092 36892 ft 411 kts 207°
2026-05-08 07:36 41.41153 -7.49903 36894 ft 412 kts 207°
2026-05-08 07:37 41.36191 -7.53719 36893 ft 412 kts 207°
2026-05-08 07:37 41.31219 -7.57541 36890 ft 413 kts 207°
2026-05-08 07:38 41.26237 -7.61357 36891 ft 413 kts 207°
2026-05-08 07:38 41.21250 -7.65171 36893 ft 414 kts 207°
2026-05-08 07:39 41.16260 -7.68982 36895 ft 414 kts 207°
2026-05-08 07:39 41.11263 -7.72797 36898 ft 414 kts 207°
2026-05-08 07:40 41.06229 -7.76629 36901 ft 415 kts 207°
2026-05-08 07:40 41.01224 -7.80430 36908 ft 415 kts 207°
2026-05-08 07:41 40.96218 -7.84229 36914 ft 415 kts 208°
2026-05-08 07:41 40.91204 -7.88025 36918 ft 415 kts 207°
2026-05-08 07:42 40.86186 -7.91810 36920 ft 415 kts 208°
2026-05-08 07:42 40.81166 -7.95600 36919 ft 416 kts 208°
2026-05-08 07:43 40.76143 -7.99381 36923 ft 416 kts 208°
2026-05-08 07:43 40.71113 -8.03153 36928 ft 416 kts 208°
2026-05-08 07:44 40.66080 -8.06922 36929 ft 416 kts 208°
2026-05-08 07:44 40.61047 -8.10691 36880 ft 420 kts 208°
2026-05-08 07:44 40.58469 -8.12621 36618 ft 432 kts 208°
2026-05-08 07:45 40.55829 -8.14595 36365 ft 439 kts 208°
2026-05-08 07:45 40.53169 -8.16580 36112 ft 441 kts 208°
2026-05-08 07:45 40.50501 -8.18569 35865 ft 440 kts 207°
2026-05-08 07:45 40.47859 -8.20540 35437 ft 434 kts 207°
2026-05-08 07:46 40.45241 -8.22491 34730 ft 433 kts 207°
2026-05-08 07:46 40.42620 -8.24440 34091 ft 432 kts 206°
2026-05-08 07:46 40.40017 -8.26374 33326 ft 430 kts 206°
2026-05-08 07:46 40.37392 -8.28318 32279 ft 435 kts 206°
2026-05-08 07:47 40.34759 -8.30269 31594 ft 433 kts 206°
2026-05-08 07:47 40.33001 -8.31576 31227 ft 428 kts 206°
2026-05-08 07:47 40.30426 -8.33492 30666 ft 423 kts 206°
2026-05-08 07:47 40.27878 -8.35383 30115 ft 419 kts 205°
2026-05-08 07:48 40.25358 -8.37251 29510 ft 414 kts 206°
2026-05-08 07:48 40.22868 -8.39091 28975 ft 408 kts 206°
2026-05-08 07:48 40.20414 -8.40899 28454 ft 402 kts 207°
2026-05-08 07:48 40.17997 -8.42678 27915 ft 396 kts 207°
2026-05-08 07:49 40.15612 -8.44430 27427 ft 390 kts 207°
2026-05-08 07:49 40.13257 -8.46158 26931 ft 386 kts 208°
2026-05-08 07:49 40.10936 -8.47865 26451 ft 381 kts 208°
2026-05-08 07:49 40.08638 -8.49556 25985 ft 377 kts 208°
2026-05-08 07:50 40.06368 -8.51224 25542 ft 372 kts 209°
2026-05-08 07:50 40.04022 -8.52600 25102 ft 369 kts 198°
2026-05-08 07:50 40.01519 -8.53284 24720 ft 367 kts 186°
2026-05-08 07:50 39.98957 -8.53278 24470 ft 370 kts 178°
2026-05-08 07:51 39.96395 -8.53059 24188 ft 369 kts 178°
2026-05-08 07:51 39.93838 -8.52844 23902 ft 368 kts 179°
2026-05-08 07:51 39.91286 -8.52628 23623 ft 366 kts 179°
2026-05-08 07:51 39.88746 -8.52414 23315 ft 365 kts 179°
2026-05-08 07:52 39.86219 -8.52204 23027 ft 363 kts 180°
2026-05-08 07:52 39.83723 -8.52457 22745 ft 358 kts 196°
2026-05-08 07:52 39.81424 -8.53699 22470 ft 353 kts 214°
2026-05-08 07:52 39.79590 -8.55780 22201 ft 350 kts 231°
2026-05-08 07:53 39.78284 -8.58433 21933 ft 349 kts 240°
2026-05-08 07:53 39.77082 -8.61165 21663 ft 347 kts 240°
2026-05-08 07:53 39.75887 -8.63872 21207 ft 344 kts 240°
2026-05-08 07:53 39.74417 -8.66297 20725 ft 343 kts 223°
2026-05-08 07:54 39.72419 -8.67971 20252 ft 344 kts 205°
2026-05-08 07:54 39.70084 -8.68685 19776 ft 348 kts 188°
2026-05-08 07:54 39.67672 -8.68909 19226 ft 347 kts 187°
2026-05-08 07:54 39.65262 -8.69111 18673 ft 346 kts 187°
2026-05-08 07:55 39.62863 -8.69304 18131 ft 345 kts 187°
2026-05-08 07:55 39.60475 -8.69494 17598 ft 342 kts 187°
2026-05-08 07:55 39.58110 -8.69682 17177 ft 339 kts 187°
2026-05-08 07:55 39.55765 -8.69872 16746 ft 336 kts 187°
2026-05-08 07:56 39.53443 -8.70067 16328 ft 334 kts 187°
2026-05-08 07:56 39.51129 -8.70261 15905 ft 332 kts 187°
2026-05-08 07:56 39.48833 -8.70456 15492 ft 330 kts 187°
2026-05-08 07:56 39.46547 -8.70650 15074 ft 328 kts 187°
2026-05-08 07:57 39.44271 -8.70842 14656 ft 327 kts 187°
2026-05-08 07:57 39.42008 -8.71031 14239 ft 325 kts 187°
2026-05-08 07:57 39.39751 -8.71219 13821 ft 325 kts 187°
2026-05-08 07:57 39.37501 -8.71408 13363 ft 323 kts 187°
2026-05-08 07:58 39.35265 -8.71598 12937 ft 320 kts 186°
2026-05-08 07:58 39.33052 -8.71783 12517 ft 317 kts 186°
2026-05-08 07:58 39.30856 -8.71966 12097 ft 315 kts 186°
2026-05-08 07:58 39.28681 -8.72148 11674 ft 312 kts 186°
2026-05-08 07:59 39.26522 -8.72330 11253 ft 310 kts 186°
2026-05-08 07:59 39.24380 -8.72511 10832 ft 308 kts 186°
2026-05-08 07:59 39.22247 -8.72691 10413 ft 306 kts 185°
2026-05-08 07:59 39.20110 -8.72868 10120 ft 299 kts 185°
2026-05-08 08:00 39.18101 -8.73032 9995 ft 288 kts 185°
2026-05-08 08:00 39.16102 -8.73195 9728 ft 281 kts 185°
2026-05-08 08:00 39.14147 -8.73358 9242 ft 285 kts 185°
2026-05-08 08:00 39.12185 -8.73522 8889 ft 279 kts 185°
2026-05-08 08:01 39.10284 -8.73683 8639 ft 268 kts 185°
2026-05-08 08:01 39.08440 -8.73905 8177 ft 264 kts 194°
2026-05-08 08:01 39.06840 -8.74910 7898 ft 252 kts 220°
2026-05-08 08:01 39.05807 -8.76664 7643 ft 245 kts 246°
2026-05-08 08:02 39.05432 -8.78795 7390 ft 245 kts 261°
2026-05-08 08:02 39.05223 -8.80966 7111 ft 244 kts 261°
2026-05-08 08:02 39.05014 -8.83129 6844 ft 243 kts 261°
2026-05-08 08:02 39.04802 -8.85280 6626 ft 242 kts 260°
2026-05-08 08:03 39.04589 -8.87417 6374 ft 239 kts 260°
2026-05-08 08:03 39.04382 -8.89518 6089 ft 234 kts 260°
2026-05-08 08:03 39.04177 -8.91579 5817 ft 231 kts 260°
2026-05-08 08:03 39.03972 -8.93620 5536 ft 229 kts 259°
2026-05-08 08:04 39.03768 -8.95651 5295 ft 229 kts 259°
2026-05-08 08:04 39.03563 -8.97678 5035 ft 228 kts 259°
2026-05-08 08:04 39.03359 -8.99700 4801 ft 227 kts 259°
2026-05-08 08:04 39.03159 -9.01716 4725 ft 228 kts 259°
2026-05-08 08:05 39.02957 -9.03739 4623 ft 227 kts 259°
2026-05-08 08:05 39.02545 -9.05662 4516 ft 221 kts 233°
2026-05-08 08:05 39.01371 -9.06771 4362 ft 209 kts 193°
2026-05-08 08:05 38.99934 -9.06848 4151 ft 205 kts 179°
2026-05-08 08:06 38.98521 -9.06753 3944 ft 201 kts 177°
2026-05-08 08:06 38.97144 -9.06642 3746 ft 196 kts 177°
2026-05-08 08:06 38.95808 -9.06537 3588 ft 188 kts 177°
2026-05-08 08:06 38.94528 -9.06444 3380 ft 181 kts 177°
2026-05-08 08:07 38.93310 -9.06359 3214 ft 171 kts 177°
2026-05-08 08:07 38.92143 -9.06297 3061 ft 164 kts 181°
2026-05-08 08:07 38.91067 -9.06652 2896 ft 159 kts 201°
2026-05-08 08:07 38.90055 -9.07197 2694 ft 156 kts 201°
2026-05-08 08:08 38.89060 -9.07733 2506 ft 153 kts 201°
2026-05-08 08:08 38.88083 -9.08258 2284 ft 148 kts 200°
2026-05-08 08:08 38.87165 -9.08751 2093 ft 143 kts 200°
2026-05-08 08:08 38.86255 -9.09240 1894 ft 136 kts 201°
2026-05-08 08:09 38.85401 -9.09698 1714 ft 131 kts 200°
2026-05-08 08:09 38.84574 -9.10140 1549 ft 128 kts 200°
2026-05-08 08:09 38.83751 -9.10580 1343 ft 127 kts 201°
2026-05-08 08:09 38.82933 -9.11020 1154 ft 128 kts 200°
2026-05-08 08:10 38.82112 -9.11464 998 ft 129 kts 202°
2026-05-08 08:10 38.81290 -9.11917 825 ft 128 kts 201°
2026-05-08 08:10 38.80452 -9.12350 637 ft 129 kts 202°
2026-05-08 08:10 38.79627 -9.12791 461 ft 128 kts 202°
2026-05-08 08:11 38.78819 -9.13227 357 ft 118 kts 202°
2026-05-08 08:11 38.78178 -9.13568 357 ft 76 kts 202°
2026-05-08 08:11 38.77818 -9.13761 357 ft 45 kts 202°
2026-05-08 08:11 38.77607 -9.13870 360 ft 25 kts 198°
2026-05-08 08:12 38.77446 -9.13900 353 ft 13 kts 178°
2026-05-08 08:12 38.77351 -9.13896 353 ft 15 kts 178°
2026-05-08 08:12 38.77261 -9.13886 352 ft 12 kts 157°
2026-05-08 08:12 38.77248 -9.13794 355 ft 10 kts 78°
2026-05-08 08:13 38.77265 -9.13697 358 ft 12 kts 77°
2026-05-08 08:13 38.77283 -9.13589 355 ft 13 kts 78°
2026-05-08 08:13 38.77302 -9.13470 351 ft 14 kts 78°
2026-05-08 08:13 38.77322 -9.13348 359 ft 9 kts 78°
2026-05-08 08:14 38.77321 -9.13274 351 ft 8 kts 121°
2026-05-08 08:14 38.77283 -9.13226 354 ft 6 kts 101°
2026-05-08 08:14 38.77295 -9.13182 358 ft 4 kts 77°
2026-05-08 08:14 38.77297 -9.13163 355 ft 0 kts 78°